Content
SEND FEEDBACK

Daily
Averages
Monthly
Summary
United States of America

NEW YORK - CENTRAL PARK, NEW YORK


Home > North America > United States > New York
Elevation: 14 feet     Latitude: 40 47N     Longitude: 073 58W

WEATHER
 
SELECT A DAY
Number of Records: 150,506;   Date Range: 11/1/95 - 9/29/14
 
SHARE

PRINT THIS DATA

[ ← Previous Day ]
WEATHER ALMANAC - JULY 11, 2014
[ Next Day → ]
[ °C ]   °F
Weather ElementAverageHighLow
Temperature76.5 °F84.9 °F (1:51 pm)72 °F (2:51 am)
Dewpoint58.4 °F63 °F (1:51 am)53.1 °F (3:51 am)
Humidity54.7 %68 % (2:21 pm)37 % (1:51 pm)
Barometer30.18 in30.22 in (2:51 am)30.13 in (7:51 am)
Wind Speed4 mph9.2 mph (12:47 am)
Weather ElementAverage
Visibility10 mi
Wind DirectionNE (49.2 °)

Weather ElementTotal
Precipitation---
Cooling Degree Days13.5 (Base 65)
Growing Degree Days28.5 (Base 50)
Averaged from 24 records on July 11, 2014
WEATHER CONDITIONS BREAKOUT
WIND DIRECTION BREAKOUT
WEATHER BY HOUR - JULY 11, 2014
[ °C ]   °F
Local TimeTemperatureDewpointHumidityBarometerVisibilityWind DirectionWind SpeedGust SpeedPrecipitationEventsConditions
12:51 AM73.9 °F62.1 °F66 %30.13 in10.0 miCalmMostly Cloudy
1:51 AM73.9 °F61.0 °F64 %30.13 in10.0 miWNW (290°)3.5 mphMostly Cloudy
2:51 AM73.0 °F61.0 °F66 %30.13 in10.0 miNE (50°)3.5 mphClear
3:51 AM73.9 °F62.1 °F66 %30.14 in10.0 miNNE (30°)3.5 mphPartly Cloudy
4:51 AM73.9 °F63.0 °F68 %30.14 in10.0 miNE (50°)4.6 mphPartly Cloudy
5:51 AM73.0 °F54.0 °F51 %30.16 in10.0 miENE (60°)9.2 mphPartly Cloudy
6:51 AM72.0 °F55.9 °F57 %30.17 in10.0 miVariable4.6 mphClear
7:51 AM73.0 °F53.1 °F49 %30.19 in10.0 miNorth (10°)8.1 mphOvercast
8:51 AM73.9 °F53.1 °F48 %30.20 in10.0 miVariable4.6 mphPartly Cloudy
9:51 AM75.9 °F55.0 °F48 %30.21 in10.0 miVariable4.6 mphScattered Clouds
10:51 AM79.0 °F55.0 °F44 %30.20 in10.0 miVariable4.6 mphClear
11:51 AM82.0 °F53.1 °F37 %30.20 in10.0 miVariable4.6 mphClear
12:51 PM82.9 °F55.0 °F38 %30.19 in10.0 miVariable5.8 mphClear
1:51 PM84.0 °F55.0 °F37 %30.18 in10.0 miVariable5.8 mphClear
2:51 PM84.9 °F55.9 °F37 %30.18 in10.0 miNorth (10°)6.9 mphClear
3:51 PM84.0 °F57.0 °F40 %30.17 in10.0 miENE (60°)5.8 mphPartly Cloudy
4:51 PM81.0 °F59.0 °F47 %30.17 in10.0 miCalmScattered Clouds
5:51 PM78.1 °F61.0 °F56 %30.17 in10.0 miSouth (170°)4.6 mphMostly Cloudy
6:51 PM77.0 °F62.1 °F60 %30.18 in10.0 miCalmPartly Cloudy
7:51 PM75.9 °F62.1 °F62 %30.19 in10.0 miSouth (170°)6.9 mphOvercast
8:51 PM73.9 °F63.0 °F68 %30.19 in10.0 miCalmClear
9:51 PM73.0 °F62.1 °F68 %30.20 in10.0 miCalmClear
10:51 PM72.0 °F61.0 °F68 %30.21 in10.0 miCalmClear
11:51 PM72.0 °F61.0 °F68 %30.22 in10.0 miWest (280°)4.6 mphClear
Hourly data recorded from KNYC, located miles away from New York - Central Park, New York







STORIES FROM OUR PARTNERS